Location: Madingley
(52.2167°N, 0.0500°E)
Time: 05:22:35
(UTC+00:00)

Nadezhda 4 Rocket - Pass Details

Date: 15 May 2026
Orbit: 948 x 992 km, 82.9° (Epoch: 6 June)

Event Time Altitude Azimuth Distance (km) Brightness Sun altitude
Rises 22:06:36 0° 347° (NNW) 3,634 8.6 -14.9°
Reaches altitude 10° 22:09:08 10° 343° (NNW) 2,684 7.7 -15.0°
Maximum altitude 22:15:06 57° 267° (W) 1,117 4.4 -15.4°
Enters shadow 22:20:01 16° 194° (SSW) 2,302 5.5 -15.7°
